Item Display Status Humidity-temperature Sensor

Elevation Above Sea Level: 3 m

 

Deployed Sensor

  • Serial Number: 61290114
  • NDBC Property Number: 37967
  • Start Date: 11/16/2018 (15:05:13 Z)
  • End Date: Currently Active
Relative Humidity [%]     6 entries per hour
Showing data from 9/21/2019 (17:50:00 Z) to 9/20/2019 (00:00:01 Z)
Previous Next [ Day | 3-Days | 7-Days ]
First Last
Prev [ Day | 3-Days | 7-Days ] Next
First Last

Start Time:     :
End Time:     :     
Time (in GMT) :00 :50 :40 :30 :20 :10
Previous Next [ Day | 3-Days | 7-Days ]
First Last
Prev [ Day | 3-Days | 7-Days ] Next
First Last


123 => good data
MM => data is determined as missing
-- => data not received/configured
Back to Top Back to Top
9/21/2019 18:00 to 17:10 -- 76.38 77.01 78.73 77.89 77.73
9/21/2019 17:00 to 16:10 79.06 79.49 79.76 80.68 79.59 80.29
9/21/2019 16:00 to 15:10 80.31 80.64 80.86 80.06 81.60 81.93
9/21/2019 15:00 to 14:10 82.34 82.32 82.89 83.18 82.58 82.91
9/21/2019 14:00 to 13:10 82.64 83.75 83.40 83.44 84.44 85.08
9/21/2019 13:00 to 12:10 85.67 83.05 85.90 84.94 84.98 85.98
9/21/2019 12:00 to 11:10 86.64 86.23 86.74 86.06 86.51 85.88
9/21/2019 11:00 to 10:10 86.33 88.66 88.03 87.45 86.57 86.70
9/21/2019 10:00 to 9:10 87.88 87.00 87.62 88.68 89.87 94.38
9/21/2019 09:00 to 8:10 93.37 94.48 96.65 96.18 92.70 92.04
9/21/2019 08:00 to 7:10 91.86 92.80 95.07 96.10 96.65 95.24
9/21/2019 07:00 to 6:10 94.29 93.05 92.76 90.10 90.67 89.77
9/21/2019 06:00 to 5:10 90.10 89.15 91.80 91.00 90.01 91.14
9/21/2019 05:00 to 4:10 91.96 93.27 92.08 91.18 90.61 90.53
9/21/2019 04:00 to 3:10 93.17 92.41 93.37 94.79 94.34 94.76
9/21/2019 03:00 to 2:10 94.60 96.26 94.93 95.34 96.81 97.65
9/21/2019 02:00 to 1:10 96.83 96.32 96.40 94.07 91.76 93.58
9/21/2019 01:00 to 0:10 94.93 93.76 94.27 94.40 92.39 91.92
9/21/2019 00:00 to 23:10 92.23 91.67 92.98 92.57 92.96 92.98
9/20/2019 23:00 to 22:10 93.02 93.43 93.62 94.70 94.17 94.64
9/20/2019 22:00 to 21:10 95.50 94.93 95.11 95.03 95.46 95.05
9/20/2019 21:00 to 20:10 95.40 94.34 93.99 94.62 94.89 94.64
9/20/2019 20:00 to 19:10 94.68 94.46 95.22 95.93 96.14 96.26
9/20/2019 19:00 to 18:10 96.71 96.81 97.45 97.18 96.94 97.20
9/20/2019 18:00 to 17:10 99.04 98.96 99.15 99.43 99.62 99.62
9/20/2019 17:00 to 16:10 99.74 99.74 99.84 -- -- --
9/20/2019 16:00 to 15:10 -- -- -- -- -- --
9/20/2019 15:00 to 14:10 -- 99.45 99.50 99.21 98.70 97.92
9/20/2019 14:00 to 13:10 96.73 94.34 94.13 94.60 93.86 93.68
9/20/2019 13:00 to 12:10 93.07 93.37 93.37 93.39 92.74 92.06
9/20/2019 12:00 to 11:10 91.88 90.49 91.12 91.51 91.92 92.06
9/20/2019 11:00 to 10:10 91.98 92.10 92.53 92.27 92.68 92.62
9/20/2019 10:00 to 9:10 93.29 93.35 92.23 93.02 93.70 95.54
9/20/2019 09:00 to 8:10 95.99 96.32 96.98 97.82 97.04 94.87
9/20/2019 08:00 to 7:10 89.87 90.04 91.55 90.26 89.54 90.79
9/20/2019 07:00 to 6:10 90.83 90.83 90.98 90.53 91.55 90.94
9/20/2019 06:00 to 5:10 91.80 92.82 92.27 93.13 92.98 92.94
9/20/2019 05:00 to 4:10 92.49 92.88 93.88 94.76 93.29 91.51
9/20/2019 04:00 to 3:10 92.06 90.71 89.07 87.93 87.86 89.03
9/20/2019 03:00 to 2:10 88.74 89.71 91.26 92.43 92.08 91.96
9/20/2019 02:00 to 1:10 92.53 87.78 89.83 89.13 87.15 86.72
9/20/2019 01:00 to 0:10 86.70 88.44 86.27 85.30 84.08 85.06

 

 

 

Air Temperature [°C]     6 entries per hour
Showing data from 9/21/2019 (03:10:00 Z) to 9/20/2019 (00:00:01 Z)
Previous Next [ Day | 3-Days | 7-Days ]
First Last
Prev [ Day | 3-Days | 7-Days ] Next
First Last

Start Time:     :
End Time:     :     
Time (in GMT) :00 :50 :40 :30 :20 :10
Previous Next [ Day | 3-Days | 7-Days ]
First Last
Prev [ Day | 3-Days | 7-Days ] Next
First Last


123 => good data
MM => data is determined as missing
-- => data not received/configured
Back to Top Back to Top
9/21/2019 04:00 to 3:10 -- -- -- -- -- 26.77
9/21/2019 03:00 to 2:10 26.76 26.45 27.07 26.95 26.54 26.53
9/21/2019 02:00 to 1:10 26.64 26.57 26.88 27.21 27.26 27.04
9/21/2019 01:00 to 0:10 26.91 27.09 26.91 26.79 27.15 27.03
9/21/2019 00:00 to 23:10 27.22 27.13 27.03 27.04 26.94 26.96
9/20/2019 23:00 to 22:10 26.86 26.80 26.76 26.74 26.57 26.38
9/20/2019 22:00 to 21:10 26.20 26.25 25.99 25.91 25.84 25.81
9/20/2019 21:00 to 20:10 25.61 25.59 25.62 25.55 25.35 25.33
9/20/2019 20:00 to 19:10 25.30 25.00 24.88 24.85 24.79 24.52
9/20/2019 19:00 to 18:10 24.58 24.43 24.56 24.69 24.73 24.51
9/20/2019 18:00 to 17:10 24.54 24.55 24.32 24.10 24.12 24.22
9/20/2019 17:00 to 16:10 24.38 24.44 24.32 24.32 24.39 24.20
9/20/2019 16:00 to 15:10 24.26 24.22 24.54 24.48 24.16 24.32
9/20/2019 15:00 to 14:10 24.47 24.15 24.28 24.12 24.03 24.19
9/20/2019 14:00 to 13:10 24.39 26.75 26.78 26.73 26.67 26.74
9/20/2019 13:00 to 12:10 26.81 26.71 26.75 26.86 26.78 26.89
9/20/2019 12:00 to 11:10 26.88 27.03 26.99 26.97 26.89 26.88
9/20/2019 11:00 to 10:10 26.83 26.64 26.76 26.62 26.61 26.65
9/20/2019 10:00 to 9:10 26.52 26.31 26.30 26.21 26.22 26.25
9/20/2019 09:00 to 8:10 25.97 25.69 25.83 25.94 25.77 25.99
9/20/2019 08:00 to 7:10 26.59 26.53 26.60 26.63 26.63 26.68
9/20/2019 07:00 to 6:10 26.76 26.63 26.60 26.56 26.67 26.45
9/20/2019 06:00 to 5:10 26.40 26.41 26.40 26.37 26.36 26.45
9/20/2019 05:00 to 4:10 26.39 26.44 26.16 25.87 26.01 26.44
9/20/2019 04:00 to 3:10 26.22 26.23 26.60 26.81 26.71 26.59
9/20/2019 03:00 to 2:10 26.45 26.36 26.19 26.19 26.05 25.93
9/20/2019 02:00 to 1:10 26.17 26.45 26.29 26.43 26.74 26.58
9/20/2019 01:00 to 0:10 26.57 26.42 26.51 27.01 26.86 26.91